Total_Precipitation_Accumulation
0.76 0.78 0.73 0.78 0.70 0.68 0.76 0.83 0.83 0.84 0.76 0.64 0.59 0.59 0.67 0.59 0.54 0.59 0.75 0.88 1.15 1.33 1.39 1.28 1.14 1.06 1.04 1.04 1.25 1.47 1.81 1.98 1.81 1.72 1.51 1.39 1.49 1.44 1.07 0.96 0.98 0.97 0.99
0.81 0.86 0.83 0.83 0.79 0.73 0.76 0.92 0.86 0.90 0.89 0.82 0.65 0.62 0.66 0.63 0.58 0.59 0.70 0.94 1.07 1.15 1.37 1.53 1.43 1.28 1.16 1.13 1.22 1.43 1.79 1.89 1.63 1.57 1.51 1.41 1.42 1.35 0.99 0.89 0.91 0.89 0.98
0.77 0.82 0.85 0.82 0.81 0.82 0.82 0.88 0.90 0.95 0.86 0.80 0.72 0.68 0.66 0.62 0.55 0.61 0.62 0.71 0.70 0.80 1.05 1.33 1.51 1.44 1.34 1.32 1.33 1.51 1.74 1.69 1.50 1.47 1.49 1.37 1.27 1.23 1.09 0.94 0.89 0.87 0.89
0.84 0.84 0.90 0.91 0.95 0.99 0.96 0.97 1.01 1.02 0.96 0.94 0.91 0.86 0.69 0.68 0.61 0.63 0.61 0.60 0.65 0.61 0.75 0.90 1.13 1.26 1.39 1.51 1.66 1.87 1.75 1.53 1.35 1.32 1.40 1.34 1.25 1.20 1.11 1.07 0.94 0.91 0.88
0.91 1.03 1.07 1.12 1.09 1.11 1.13 1.09 1.11 1.04 1.03 1.03 0.95 0.93 0.81 0.76 0.73 0.64 0.70 0.69 0.70 0.65 0.67 0.62 0.69 0.79 1.00 1.29 1.71 2.03 1.78 1.56 1.34 1.22 1.20 1.20 1.26 1.24 1.10 1.02 0.92 0.87 0.86
1.22 1.37 1.46 1.40 1.39 1.37 1.36 1.32 1.40 1.29 1.11 1.10 1.04 0.97 0.84 0.75 0.81 0.77 0.77 0.77 0.81 0.78 0.72 0.62 0.57 0.51 0.61 0.94 1.40 1.78 1.75 1.62 1.40 1.22 1.15 1.12 1.18 1.21 1.09 1.01 0.91 0.90 0.89
1.61 1.72 1.65 1.73 1.77 1.63 1.62 1.67 1.73 1.68 1.42 1.28 1.35 1.24 0.97 0.74 0.80 0.79 0.76 0.80 0.87 0.98 1.01 0.88 0.73 0.65 0.62 0.70 0.96 1.36 1.63 1.66 1.65 1.43 1.26 1.23 1.21 1.18 1.11 0.99 0.88 0.84 0.87
1.84 1.88 1.96 2.02 2.05 2.04 2.00 1.89 1.97 2.05 1.80 1.57 1.66 1.94 1.53 1.14 0.81 0.66 0.75 0.78 0.88 1.12 1.19 1.03 0.84 0.77 0.75 0.80 0.66 0.82 1.09 1.48 1.69 1.68 1.52 1.40 1.29 1.16 1.15 1.05 0.89 0.82 0.84
2.08 2.10 2.16 2.22 2.22 2.07 2.05 2.14 2.24 2.55 2.36 2.02 1.84 2.06 1.85 1.53 1.25 0.84 0.77 0.84 0.93 1.10 1.23 1.26 1.15 1.07 0.97 0.94 0.86 0.63 0.66 1.02 1.39 1.69 1.75 1.64 1.44 1.29 1.28 1.19 1.04 0.94 0.88
2.01 2.12 2.14 2.13 2.10 2.03 2.09 2.15 2.19 2.56 2.73 2.43 2.12 1.79 1.57 1.54 1.57 1.26 0.94 0.89 0.99 1.01 1.13 1.22 1.18 1.24 1.21 1.16 1.11 0.82 0.67 0.80 1.11 1.56 1.87 2.04 1.79 1.51 1.32 1.28 1.25 1.12 0.98
1.87 1.91 1.93 2.01 2.04 2.08 2.14 2.29 2.39 2.61 2.63 2.63 2.46 2.27 2.05 1.75 1.40 1.43 1.37 1.13 1.11 1.03 1.13 1.25 1.29 1.36 1.36 1.35 1.43 1.14 0.86 0.73 0.89 1.29 1.76 2.13 2.13 1.93 1.66 1.49 1.42 1.34 1.12
1.85 1.79 1.76 1.82 1.94 2.11 2.17 2.25 2.38 2.60 2.71 2.78 2.71 2.45 2.35 2.17 1.87 1.74 1.49 1.36 1.36 1.18 1.15 1.18 1.22 1.34 1.46 1.50 1.41 1.50 1.20 0.82 0.72 0.97 1.28 1.70 2.09 2.24 2.13 1.96 1.81 1.74 1.55
1.56 1.58 1.66 1.75 1.89 2.01 2.09 2.20 2.34 2.38 2.49 2.73 2.74 2.57 2.36 2.14 2.11 2.00 1.88 1.56 1.39 1.22 1.19 1.19 1.15 1.18 1.18 1.40 1.48 1.53 1.24 0.94 0.72 0.73 0.86 0.99 1.32 1.75 2.14 2.21 2.17 2.23 2.19
1.45 1.39 1.43 1.53 1.76 1.97 2.05 2.14 2.15 2.13 2.18 2.36 2.37 2.43 2.39 2.10 2.04 1.94 1.93 1.99 1.72 1.52 1.36 1.18 1.07 1.09 1.06 1.21 1.43 1.46 1.11 0.99 0.82 0.70 0.73 0.79 0.80 1.00 1.41 1.95 2.22 2.32 2.45
1.25 1.19 1.21 1.25 1.38 1.62 1.88 2.04 1.98 1.90 1.87 2.02 2.09 2.17 2.28 2.30 2.21 2.11 2.07 2.11 2.04 1.80 1.61 1.39 1.17 1.05 1.05 1.08 1.37 1.23 1.09 1.03 0.97 0.82 0.75 0.80 0.74 0.70 0.86 1.21 1.52 1.66 1.81
1.05 1.05 1.04 1.09 1.22 1.33 1.54 1.78 1.88 1.83 1.80 1.85 1.96 2.09 2.22 2.32 2.37 2.17 2.13 2.09 1.95 1.84 1.69 1.40 1.18 1.09 1.14 1.07 1.29 1.21 1.16 1.24 1.09 0.96 0.89 0.85 0.86 0.76 0.76 0.90 1.00 1.03 1.02
0.81 0.84 1.00 1.06 1.14 1.22 1.39 1.65 1.83 1.84 1.76 1.77 1.77 1.85 2.02 2.11 2.33 2.30 2.21 2.10 1.96 1.79 1.65 1.50 1.30 1.12 1.18 1.22 1.27 1.30 1.22 1.13 0.99 1.01 0.93 0.89 0.87 0.86 0.82 0.88 1.00 0.92 0.82
0.57 0.69 0.82 0.87 0.91 0.96 1.14 1.44 1.63 1.67 1.64 1.56 1.55 1.67 1.90 2.07 2.28 2.38 2.34 2.19 2.09 1.94 1.83 1.77 1.58 1.35 1.24 1.29 1.38 1.46 1.42 1.30 1.21 1.22 1.11 1.00 0.94 0.88 0.88 0.86 0.91 0.98 0.92
0.59 0.69 0.79 0.85 0.87 0.93 0.96 1.07 1.23 1.36 1.35 1.29 1.33 1.40 1.46 1.67 1.95 2.14 2.15 2.17 2.20 2.16 2.10 1.96 1.76 1.60 1.46 1.37 1.43 1.47 1.45 1.49 1.34 1.36 1.35 1.27 1.19 1.10 1.02 0.97 0.94 0.95 0.98
0.54 0.62 0.67 0.74 0.82 0.88 0.89 0.91 0.94 1.01 1.03 1.09 1.15 1.21 1.25 1.30 1.53 1.71 1.81 1.99 2.22 2.22 2.21 2.14 1.94 1.76 1.62 1.50 1.53 1.57 1.63 1.62 1.50 1.33 1.32 1.26 1.31 1.27 1.16 1.01 0.94 0.91 0.94
0.45 0.52 0.59 0.62 0.68 0.76 0.85 0.88 0.76 0.73 0.80 0.91 0.95 0.93 0.96 1.04 1.17 1.28 1.35 1.71 2.05 2.23 2.20 2.14 2.02 1.91 1.67 1.53 1.40 1.40 1.59 1.84 1.80 1.67 1.58 1.36 1.29 1.21 1.16 1.11 1.00 0.94 0.91
0.43 0.49 0.48 0.51 0.63 0.66 0.80 0.77 0.61 0.60 0.63 0.74 0.83 0.83 0.74 0.74 0.79 0.86 0.94 1.12 1.41 1.66 1.93 2.10 2.02 1.83 1.62 1.50 1.45 1.47 1.53 1.66 1.74 1.62 1.68 1.71 1.62 1.55 1.44 1.31 1.29 1.20 1.11
0.39 0.42 0.42 0.43 0.49 0.63 0.66 0.52 0.49 0.52 0.60 0.65 0.71 0.77 0.70 0.61 0.69 0.74 0.84 0.91 0.93 1.02 1.30 1.65 1.76 1.72 1.78 1.65 1.61 1.54 1.52 1.59 1.63 1.58 1.71 1.77 1.76 1.71 1.63 1.60 1.68 1.53 1.37
0.45 0.45 0.47 0.48 0.48 0.54 0.51 0.41 0.44 0.47 0.53 0.58 0.66 0.75 0.80 0.72 0.72 0.84 0.84 0.88 0.84 0.80 1.00 1.02 1.19 1.49 1.67 1.75 1.72 1.79 1.96 1.92 1.78 1.64 1.57 1.61 1.56 1.54 1.56 1.55 1.66 1.60 1.48
0.44 0.47 0.51 0.51 0.48 0.45 0.45 0.38 0.39 0.47 0.52 0.57 0.59 0.65 0.72 0.70 0.83 0.92 0.92 1.06 1.03 0.91 1.03 1.10 1.14 1.18 1.31 1.47 1.60 1.67 1.75 1.82 1.79 1.68 1.49 1.36 1.32 1.32 1.37 1.37 1.39 1.47 1.45
0.27 0.35 0.37 0.40 0.44 0.43 0.53 0.41 0.41 0.47 0.56 0.66 0.67 0.65 0.78 0.78 0.84 0.83 0.83 1.06 1.08 0.95 0.87 0.93 0.94 0.92 0.88 0.99 1.21 1.38 1.59 1.67 1.65 1.56 1.33 1.20 1.18 1.21 1.19 1.06 0.98 1.03 1.04